Location: Chmeln�
(49.6483°N, 14.9871°E)
Time: 06:18:33
(UTC+00:00)

Lacrosse 5 rocket - Pass Details

Date: 20 January 2021
Orbit: 465 x 630 km, 57.0° (Epoch: 06 March)

Event Time Altitude Azimuth Distance (km) Brightness Sun altitude
Exits shadow 03:41:29 25° 65° (ENE) 1,060 3.3 -29.6°
Drops below altitude 10° 03:43:28 10° 86° (E) 1,713 4.8 -29.2°
Sets 03:45:42 0° 95° (E) 2,569 5.9 -28.9°
